Overview Statistics Trail Chart Weather Telemetry Raw packets
 

This is the latest recevied weather packets stored in our database for station/object KC1HBM. If no packets are shown the sender has not sent any weather packets the latest 10 day(s).

<< 1 2 3 4 5 6 >>
Time Temp. Humidity Pressure Rain* Wind** Luminosity Snow
1788615214 20° C 83% 1007.7 hPa 0 mm - 88 W/m² -
1788614913 20° C 84% 1007.6 hPa 0 mm - 109 W/m² -
1788614609 20° C 82% 1007.5 hPa 0 mm - 139 W/m² -
1788614309 20° C 82% 1007.5 hPa 0 mm - 124 W/m² -
1788614004 20° C 83% 1007.5 hPa 0 mm - 144 W/m² -
1788613700 20° C 83% 1007.4 hPa 0 mm - 135 W/m² -
1788613398 19.44° C 83% 1007.5 hPa 0 mm - 111 W/m² -
1788613094 18.89° C 83% 1007.6 hPa 0 mm - 151 W/m² -
1788612788 18.89° C 85% 1007.4 hPa 0 mm - 134 W/m² -
1788612485 18.33° C 86% 1007.3 hPa 0 mm - 47 W/m² -
1788612181 18.33° C 86% 1007.2 hPa 0 mm - 46 W/m² -
1788611875 18.33° C 87% 1007.3 hPa 0 mm - 47 W/m² -
1788611572 18.33° C 87% 1007.2 hPa 0 mm - 43 W/m² -
1788611267 18.33° C 87% 1007.3 hPa 0 mm - 37 W/m² -
1788610966 18.33° C 88% 1007.2 hPa 0 mm - 44 W/m² -
1788610661 17.78° C 88% 1007.3 hPa 0 mm - 49 W/m² -
1788610358 17.78° C 89% 1007.3 hPa 0 mm - 40 W/m² -
1788610056 17.78° C 89% 1007.5 hPa 0 mm - 25 W/m² -
1788609751 17.78° C 89% 1007.1 hPa 0 mm - 29 W/m² -
1788609446 17.78° C 89% 1007.2 hPa 0 mm - 35 W/m² -
1788609146 17.78° C 90% 1007.3 hPa 0 mm - 31 W/m² -
1788608841 17.78° C 90% 1007.3 hPa 0 mm - 30 W/m² -
1788608539 17.78° C 90% 1007.4 hPa 0 mm - 16 W/m² -
1788608239 17.78° C 90% 1007.1 hPa 0 mm - 15 W/m² -
1788607935 17.22° C 91% 1007.2 hPa 0 mm - 38 W/m² -

* Rain latest hour (hover to see other rain measurements)
** Current wind speed in m/s (hover to see current wind gust speed)